Wind_Speed
7 6 5 4 4 4 5 5 5 5 5 4 4 4 4 3 2 2 2 3 3 3 4 5 7 8 10 11 13 14 15 17 17 18 18 18 19 19 19 20 20 21 22 23 24 25 26 26 27
11 10 8 7 7 7 7 7 7 6 4 3 2 2 1 2 2 2 2 3 4 5 6 7 9 11 13 14 16 17 18 19 19 20 20 20 20 20 21 21 22 23 23 24 26 27 28 29 30
13 11 10 9 9 8 7 6 5 4 3 1 0 1 2 2 3 4 4 5 6 7 9 10 12 14 16 18 19 20 20 21 21 21 21 22 22 23 24 24 25 26 27 28 28 29 31 32 33
12 10 9 9 8 7 6 4 3 1 1 2 3 4 5 5 5 6 6 7 9 10 12 13 15 17 19 20 21 21 21 22 22 23 23 24 25 26 27 28 29 30 31 32 33 33 34 35 36
9 7 6 6 5 4 3 2 3 4 5 5 6 7 7 7 7 8 9 10 11 12 14 16 18 19 20 21 21 22 22 22 23 24 25 26 27 29 30 31 32 33 35 35 36 37 38 39 40
5 4 3 3 3 4 5 6 7 7 8 8 9 9 9 10 9 10 11 12 13 15 16 18 19 20 20 21 21 21 22 23 24 25 27 28 29 30 32 33 34 36 37 38 39 41 42 43 44
4 5 6 6 7 8 9 9 10 10 11 11 10 11 11 12 11 12 13 14 15 16 18 19 19 19 20 20 21 22 23 24 25 26 27 29 30 31 32 34 35 36 38 39 41 43 44 45 47
7 8 9 10 11 12 12 12 13 13 13 12 12 12 13 13 13 13 14 15 16 17 18 18 19 19 19 20 21 22 24 25 26 27 28 29 30 31 32 34 35 37 38 40 42 43 45 47 49
11 11 12 13 13 14 14 14 14 13 14 14 13 12 13 14 14 14 15 16 16 16 17 17 18 18 19 21 22 24 25 26 27 28 29 30 31 32 33 34 35 37 38 40 42 44 46 48 50
14 14 14 14 14 14 14 14 14 14 14 14 14 13 14 14 15 15 15 15 15 15 15 16 17 18 20 22 24 26 27 28 29 30 30 30 31 32 33 34 36 37 39 41 42 44 47 49 52
14 14 14 14 14 13 14 14 15 15 15 15 15 14 14 14 15 15 15 14 14 14 14 16 17 20 22 24 25 27 28 29 30 31 31 32 32 33 34 36 37 38 40 42 44 46 48 51 53
14 14 14 14 14 14 14 14 15 15 15 15 15 14 14 14 14 14 13 13 12 13 14 16 18 21 23 25 26 27 29 30 32 32 33 34 35 36 37 38 39 41 42 44 46 48 50 53 55
15 14 14 14 15 15 14 14 15 15 15 15 14 14 13 13 13 13 12 12 12 13 14 17 19 22 23 25 26 28 29 31 33 34 35 37 38 39 41 42 43 44 45 47 49 51 53 55 58
16 15 14 14 15 15 14 13 14 14 13 14 13 12 12 13 12 12 12 12 12 14 15 17 19 21 23 25 27 28 30 32 34 35 37 39 40 41 43 44 45 47 48 50 52 54 56 58 61
17 16 15 15 15 15 14 13 13 14 13 13 12 12 12 12 12 12 12 12 13 15 17 18 20 22 23 25 27 29 31 33 35 37 39 40 42 43 44 46 47 48 50 52 55 57 59 62 64
18 17 17 16 16 15 15 13 14 13 13 13 12 12 12 12 13 13 13 14 15 17 18 20 22 23 25 26 28 30 32 35 37 39 41 42 44 45 46 47 49 50 52 54 57 60 62 65 67
19 18 18 18 17 17 16 14 16 14 14 14 13 13 14 14 14 15 16 17 18 19 21 22 24 25 27 28 30 32 34 36 39 41 43 45 46 47 48 49 51 52 54 56 59 62 65 67 69
20 20 20 21 20 19 18 16 18 17 16 16 16 16 16 16 17 18 18 19 21 22 23 25 26 28 29 31 32 34 36 38 41 43 46 47 48 50 50 51 53 54 56 58 61 64 67 69 71
22 22 22 23 23 22 21 19 20 21 19 19 19 19 19 19 20 20 21 22 24 25 27 28 29 31 32 33 35 37 39 41 43 46 48 50 51 52 53 53 54 56 58 60 62 65 68 71 74
23 23 23 24 25 25 23 21 22 24 22 22 22 21 21 22 23 23 24 25 26 28 30 31 32 34 35 37 38 39 41 43 46 48 50 52 54 55 55 56 56 58 59 62 64 67 70 73 77
24 25 25 26 26 27 27 23 24 26 25 24 24 24 24 24 25 26 26 28 29 31 33 34 35 36 38 40 41 43 44 46 49 51 53 55 56 57 58 58 59 60 62 64 66 69 72 75 79
24 26 27 28 28 28 30 28 20 27 26 25 25 26 26 26 27 28 29 30 32 34 36 37 38 40 41 43 44 46 47 49 51 54 56 57 58 59 60 60 61 62 64 65 68 70 73 77 80
26 27 29 29 30 30 29 33 23 26 27 27 27 28 28 29 29 30 31 33 35 37 39 40 41 42 44 45 47 49 50 52 54 56 58 59 60 60 61 62 63 64 65 67 69 72 75 78 81
28 30 31 31 32 31 30 33 28 25 28 28 29 30 30 31 31 32 34 36 38 40 42 43 44 45 47 48 50 52 53 55 56 58 60 61 62 62 62 63 64 65 67 68 70 73 76 80 82
30 32 35 35 34 32 32 32 28 26 28 29 30 31 32 32 33 35 37 40 41 43 45 46 47 48 50 51 52 54 56 57 59 61 62 62 63 63 63 64 65 67 68 69 71 74 78 80 82
31 33 35 39 38 36 35 34 29 28 28 30 31 33 34 35 37 39 41 44 45 46 48 49 50 51 53 54 55 56 58 59 61 62 63 63 64 64 64 65 67 68 68 70 72 75 78 80 82
32 33 35 39 42 41 38 35 31 28 27 28 30 33 36 39 42 44 46 48 49 50 51 52 53 54 55 57 58 59 60 61 62 63 64 64 64 64 66 67 68 69 70 71 73 76 78 80 81
34 35 36 39 43 45 41 37 33 30 29 29 31 34 37 41 45 48 50 52 54 54 54 54 56 57 58 59 60 60 61 62 64 64 65 65 65 65 67 68 69 70 71 72 74 76 79 80 80
34 35 37 40 42 46 47 41 35 35 34 34 35 38 42 45 48 51 54 56 58 58 57 57 58 59 60 60 61 62 62 63 65 65 66 66 65 66 68 69 70 71 72 73 74 76 78 79 78
36 37 39 41 43 45 49 47 37 37 38 40 41 42 44 47 49 52 53 55 56 57 58 58 59 59 60 61 62 62 63 65 66 66 66 66 66 67 69 69 70 71 72 73 74 76 78 78 77
Wind_Direction
86 87 93 102 108 116 125 129 134 138 135 132 125 116 108 101 94 72 48 32 10 347 333 327 323 318 314 311 309 307 306 305 304 303 303 302 301 300 300 300 300 300 300 300 299 298 297 296 295
84 85 87 92 98 106 112 119 126 131 132 128 116 97 76 43 29 15 356 351 336 324 319 316 314 312 311 309 307 306 305 304 304 303 303 303 302 301 300 299 298 297 297 297 296 296 295 294 293
83 82 87 90 92 97 103 108 116 123 126 122 39 330 326 333 333 328 324 323 319 315 313 312 311 311 310 309 307 306 306 305 304 305 305 305 304 303 302 300 299 298 297 295 295 294 293 293 292
80 81 82 84 86 85 88 87 83 62 354 317 312 312 311 311 313 312 311 311 312 311 309 309 309 309 309 308 307 307 307 307 307 307 307 306 305 304 303 301 299 298 297 295 294 293 292 291 290
75 75 73 70 66 59 40 9 336 316 309 305 303 305 302 301 302 302 302 304 306 307 307 308 308 308 309 309 309 310 310 310 310 310 309 308 306 305 303 301 300 298 297 295 294 292 291 290 289
53 38 27 10 354 337 321 311 305 301 298 296 296 297 295 295 295 296 297 301 304 306 306 307 308 309 310 311 312 313 314 314 313 312 310 309 308 306 305 303 302 300 298 296 295 293 291 290 289
344 334 324 321 315 308 303 299 297 296 293 292 292 292 290 291 292 294 297 301 303 304 305 307 309 311 312 314 315 316 317 316 316 314 314 312 311 310 308 307 305 304 302 300 297 295 294 292 291
315 312 310 308 306 302 298 295 294 293 291 291 290 289 288 289 291 293 296 299 301 304 307 309 311 314 316 317 319 320 321 320 319 318 318 317 316 315 314 313 311 309 307 304 302 300 297 295 293
306 302 301 300 299 297 294 293 293 291 288 289 289 286 286 288 290 293 296 300 304 307 310 312 316 318 320 322 323 324 323 323 321 320 319 319 318 318 317 316 315 314 312 309 307 304 302 300 297
303 299 299 299 297 296 294 292 292 289 288 288 288 286 286 287 290 293 297 301 306 310 313 317 321 323 325 325 325 324 323 322 321 319 318 318 318 318 318 318 317 316 315 314 312 310 307 305 302
303 300 300 300 298 296 294 292 291 289 288 289 289 288 285 286 288 293 298 303 309 314 319 323 325 326 326 326 325 324 322 321 319 318 317 317 317 317 317 317 317 317 317 317 316 314 312 309 307
305 301 300 299 298 296 293 290 289 289 290 291 290 289 287 286 288 293 299 305 312 318 323 326 327 327 327 327 326 324 323 321 319 318 317 317 316 315 315 315 315 316 317 317 317 316 315 313 310
304 298 297 295 295 294 292 290 288 289 292 291 290 288 286 286 290 295 300 306 313 319 324 328 328 328 328 329 328 327 325 323 321 319 318 317 316 314 314 313 314 314 315 316 317 317 316 315 313
301 297 295 293 291 291 291 289 287 288 290 289 287 285 285 287 290 294 299 305 312 319 323 325 326 328 330 331 331 330 329 327 325 323 322 320 319 317 314 313 313 314 314 315 316 316 316 316 315
299 296 294 291 289 288 289 288 285 287 286 285 284 283 283 285 289 292 297 303 309 313 317 321 324 328 330 330 330 330 330 329 328 326 325 323 321 319 317 315 314 314 314 315 316 317 317 317 317
297 294 292 289 286 284 284 286 284 282 282 281 281 282 283 285 286 289 294 298 303 307 312 317 322 325 327 328 328 329 329 329 329 328 326 325 323 321 319 317 316 315 315 315 316 317 318 319 319
296 291 288 286 282 280 280 282 283 279 278 279 279 280 282 282 283 286 290 293 297 302 308 312 316 319 322 324 326 326 327 328 329 329 328 327 325 323 321 319 317 317 316 316 317 318 319 320 320
294 290 286 284 281 278 277 276 278 278 276 276 277 279 280 280 282 285 288 291 294 298 303 307 311 315 317 320 322 323 324 325 327 328 328 328 326 324 322 320 318 318 317 317 318 319 320 321 322
293 290 287 284 283 279 277 276 276 278 277 276 277 278 279 280 282 284 286 288 292 296 300 304 308 311 314 317 319 320 321 322 323 325 326 327 326 324 323 321 319 318 318 318 319 320 322 323 323
292 291 288 285 283 281 278 278 276 276 276 276 277 278 279 280 282 283 284 286 289 293 296 300 305 309 312 314 317 318 319 320 321 323 323 325 325 324 323 321 319 319 319 319 320 321 323 324 325
293 294 292 289 286 285 283 279 276 275 276 277 278 277 278 279 280 282 284 285 287 290 295 298 302 306 309 312 314 316 317 318 319 321 322 323 324 323 322 321 319 319 319 320 321 323 324 325 326
293 294 294 293 291 289 288 285 276 278 279 279 278 277 277 279 280 281 283 284 286 289 293 297 300 303 306 309 311 314 315 316 318 319 320 321 322 322 321 320 319 319 319 321 322 324 325 326 327
293 295 295 295 294 294 293 290 288 281 281 279 277 277 277 278 279 280 281 283 286 289 292 295 298 300 303 306 308 311 313 314 316 318 319 320 320 321 320 320 319 319 320 322 323 325 326 327 327
294 296 296 296 296 297 296 294 297 290 283 280 278 277 277 278 279 280 281 283 285 288 290 293 296 298 300 303 306 308 310 312 315 316 317 319 319 319 319 319 319 320 321 322 324 326 326 327 327
294 297 298 297 297 298 299 298 303 300 290 283 279 277 276 277 278 278 279 281 283 286 289 291 294 296 299 301 304 306 309 311 313 315 316 317 318 318 318 319 319 320 322 324 325 326 326 327 327
295 296 298 298 299 299 300 302 308 307 297 290 284 279 276 275 275 275 277 279 281 284 287 290 293 295 297 299 302 305 307 309 311 313 315 316 316 317 317 318 319 321 323 324 325 326 326 326 326
294 294 296 297 298 299 300 302 306 308 303 295 288 282 277 275 274 275 276 278 280 283 286 288 291 293 295 298 300 303 306 308 310 312 313 314 315 315 316 318 319 321 323 324 325 325 325 325 326
294 295 296 296 297 298 299 302 309 311 305 296 288 282 278 275 274 275 276 278 281 283 286 288 290 292 294 296 299 302 304 306 308 310 312 313 313 314 316 317 319 321 322 323 324 324 324 325 325
292 293 293 294 295 297 299 302 311 308 302 295 288 283 280 278 277 278 279 281 284 286 287 289 290 292 293 295 298 301 303 305 307 309 310 311 312 314 316 318 320 321 321 321 322 323 323 324 325
290 291 292 293 293 295 296 300 308 304 298 293 289 286 284 284 284 284 286 286 287 287 288 289 289 291 292 294 297 300 301 303 305 307 309 311 312 314 316 318 320 320 321 320 321 322 322 323 325
Height
5867 5868 5869 5870 5871 5872 5872 5873 5872 5873 5873 5874 5874 5875 5875 5875 5876 5877 5875 5873 5872 5872 5872 5871 5871 5871 5870 5869 5869 5868 5867 5866 5865 5864 5862 5861 5860 5859 5858 5857 5856 5856 5855 5854 5853 5852 5851 5851 5851
5869 5870 5871 5872 5872 5873 5874 5874 5874 5875 5875 5875 5875 5875 5875 5875 5874 5874 5873 5872 5872 5871 5871 5870 5870 5869 5868 5867 5866 5865 5864 5862 5861 5860 5859 5857 5856 5855 5854 5853 5852 5852 5851 5850 5848 5847 5846 5845 5845
5872 5872 5874 5874 5874 5875 5875 5876 5876 5876 5876 5876 5876 5875 5875 5875 5874 5873 5872 5871 5871 5870 5869 5869 5868 5867 5866 5865 5863 5862 5860 5859 5857 5856 5854 5853 5852 5851 5850 5849 5848 5847 5846 5845 5843 5842 5841 5840 5839
5875 5876 5876 5877 5876 5876 5876 5877 5877 5877 5877 5876 5876 5876 5875 5874 5873 5872 5871 5870 5869 5868 5868 5867 5866 5864 5863 5861 5860 5858 5856 5855 5853 5851 5850 5848 5847 5846 5844 5843 5842 5841 5840 5838 5837 5836 5834 5833 5832
5877 5877 5878 5878 5878 5877 5877 5877 5877 5877 5876 5876 5875 5874 5874 5873 5872 5870 5869 5869 5868 5867 5866 5864 5863 5861 5860 5858 5856 5854 5852 5850 5848 5847 5845 5843 5842 5840 5839 5837 5835 5834 5832 5831 5829 5828 5826 5825 5823
5879 5879 5879 5878 5878 5878 5877 5877 5876 5876 5875 5875 5874 5873 5872 5871 5870 5869 5868 5867 5866 5865 5863 5862 5860 5858 5856 5854 5852 5850 5848 5846 5844 5842 5840 5838 5836 5834 5832 5830 5828 5826 5824 5822 5820 5819 5817 5815 5813
5880 5879 5879 5878 5878 5877 5876 5875 5875 5874 5873 5873 5872 5871 5870 5869 5868 5867 5865 5864 5863 5862 5860 5859 5857 5855 5853 5851 5849 5847 5844 5842 5840 5838 5835 5833 5830 5828 5825 5823 5820 5818 5815 5813 5811 5808 5806 5804 5802
5879 5879 5878 5877 5876 5876 5875 5873 5873 5872 5871 5870 5869 5868 5867 5866 5865 5864 5863 5862 5860 5859 5857 5856 5854 5852 5850 5848 5845 5843 5840 5838 5835 5833 5830 5827 5824 5821 5818 5815 5812 5809 5806 5803 5800 5798 5795 5792 5789
5878 5878 5876 5875 5874 5874 5872 5871 5870 5869 5868 5867 5866 5866 5864 5863 5861 5860 5859 5858 5857 5856 5854 5852 5851 5849 5847 5844 5842 5839 5836 5834 5831 5828 5824 5821 5818 5815 5811 5808 5804 5801 5797 5794 5790 5787 5783 5780 5776
5876 5875 5873 5873 5872 5871 5869 5868 5867 5867 5865 5864 5863 5863 5861 5859 5858 5857 5856 5855 5854 5853 5851 5849 5847 5845 5843 5841 5838 5835 5832 5829 5826 5823 5819 5816 5812 5808 5804 5801 5797 5793 5789 5784 5780 5776 5772 5768 5763
5874 5872 5871 5869 5869 5868 5867 5866 5865 5864 5862 5862 5860 5859 5858 5856 5855 5854 5853 5852 5851 5850 5848 5846 5844 5842 5840 5837 5834 5831 5828 5824 5821 5817 5813 5810 5806 5802 5798 5793 5789 5784 5780 5775 5770 5765 5760 5756 5751
5871 5870 5868 5867 5866 5865 5865 5864 5862 5861 5860 5859 5857 5856 5855 5853 5852 5851 5850 5849 5848 5847 5845 5843 5841 5839 5836 5833 5830 5826 5823 5819 5815 5811 5807 5803 5799 5794 5790 5785 5780 5775 5770 5765 5760 5755 5749 5743 5737
5869 5867 5866 5865 5864 5863 5862 5861 5860 5858 5857 5855 5854 5852 5851 5850 5849 5848 5847 5846 5845 5843 5842 5840 5838 5835 5832 5829 5825 5822 5818 5814 5810 5805 5800 5796 5791 5786 5781 5776 5771 5766 5761 5755 5750 5744 5737 5731 5724
5866 5865 5864 5862 5861 5860 5859 5858 5857 5855 5854 5852 5851 5850 5848 5847 5846 5845 5844 5843 5842 5840 5839 5837 5834 5831 5828 5824 5821 5817 5813 5808 5804 5799 5794 5788 5783 5778 5772 5767 5762 5756 5751 5745 5739 5732 5725 5718 5710
5864 5863 5861 5860 5859 5857 5857 5856 5854 5853 5851 5850 5848 5847 5846 5845 5843 5842 5841 5840 5838 5837 5835 5832 5830 5827 5823 5819 5816 5812 5807 5803 5798 5792 5787 5781 5775 5769 5764 5758 5752 5746 5740 5734 5727 5719 5712 5704 5696
5861 5860 5859 5858 5856 5855 5855 5854 5852 5850 5848 5847 5845 5844 5843 5842 5841 5839 5838 5836 5835 5833 5830 5828 5825 5822 5818 5814 5810 5806 5802 5797 5791 5786 5780 5774 5768 5761 5755 5749 5742 5736 5729 5722 5714 5707 5699 5690 5681
5858 5857 5855 5854 5853 5851 5851 5851 5848 5847 5845 5844 5842 5841 5840 5839 5837 5836 5834 5832 5831 5828 5826 5823 5820 5817 5813 5809 5805 5800 5795 5790 5785 5779 5773 5766 5760 5753 5746 5739 5732 5725 5717 5710 5702 5694 5685 5676 5666
5855 5853 5851 5850 5849 5848 5847 5847 5845 5843 5842 5840 5839 5837 5836 5835 5833 5832 5830 5828 5826 5824 5821 5818 5815 5811 5807 5803 5798 5793 5788 5783 5777 5771 5765 5758 5751 5744 5737 5729 5721 5713 5705 5697 5689 5680 5670 5661 5651
5851 5849 5848 5846 5844 5844 5843 5843 5842 5839 5838 5837 5835 5834 5832 5831 5829 5827 5825 5823 5821 5819 5816 5812 5809 5805 5800 5796 5791 5786 5781 5775 5770 5763 5756 5749 5742 5735 5727 5719 5710 5702 5694 5685 5676 5666 5656 5645 5634
5846 5845 5843 5842 5839 5838 5838 5839 5837 5835 5834 5833 5831 5829 5828 5826 5824 5822 5820 5818 5816 5813 5810 5806 5802 5798 5793 5789 5784 5779 5773 5767 5761 5754 5747 5740 5732 5724 5716 5708 5699 5690 5682 5672 5663 5653 5641 5629 5616
5842 5840 5838 5836 5834 5833 5832 5834 5833 5831 5829 5828 5826 5824 5822 5821 5819 5817 5814 5812 5809 5806 5803 5799 5795 5790 5786 5781 5776 5771 5765 5759 5752 5745 5738 5730 5722 5714 5705 5696 5687 5678 5669 5659 5649 5638 5626 5614 5599
5838 5835 5833 5831 5829 5828 5827 5826 5831 5825 5824 5822 5820 5818 5817 5815 5813 5810 5808 5805 5803 5799 5796 5792 5787 5783 5778 5772 5767 5762 5756 5750 5743 5736 5728 5720 5712 5703 5694 5685 5676 5666 5656 5646 5635 5623 5611 5598 5584
5833 5831 5828 5826 5824 5823 5822 5818 5825 5822 5819 5816 5814 5812 5810 5808 5806 5803 5801 5798 5795 5792 5788 5784 5779 5775 5769 5764 5759 5753 5747 5740 5733 5725 5717 5709 5701 5692 5683 5674 5664 5654 5644 5633 5621 5608 5595 5581 5567
5828 5826 5823 5821 5819 5818 5817 5813 5816 5816 5812 5810 5808 5805 5803 5801 5799 5796 5793 5790 5787 5783 5779 5775 5771 5766 5760 5755 5749 5743 5737 5730 5722 5714 5706 5698 5689 5680 5671 5662 5652 5641 5631 5619 5607 5594 5580 5566 5550
5823 5820 5817 5814 5813 5812 5810 5808 5810 5808 5805 5802 5800 5798 5795 5793 5791 5788 5784 5781 5777 5773 5770 5765 5761 5756 5751 5745 5739 5733 5726 5719 5711 5703 5695 5686 5678 5669 5659 5650 5639 5629 5617 5606 5593 5580 5566 5551 5535
5818 5815 5812 5807 5805 5804 5803 5801 5804 5801 5797 5794 5791 5789 5786 5784 5781 5778 5774 5771 5767 5763 5759 5755 5750 5745 5740 5734 5728 5722 5715 5707 5700 5691 5683 5675 5666 5657 5647 5637 5627 5616 5604 5592 5580 5566 5552 5537 5521
5812 5810 5807 5801 5797 5795 5796 5796 5797 5794 5790 5786 5783 5779 5776 5773 5769 5766 5763 5759 5756 5752 5748 5744 5739 5734 5728 5722 5716 5710 5703 5695 5688 5680 5671 5662 5653 5644 5635 5624 5614 5603 5591 5579 5566 5553 5539 5524 5508
5806 5803 5800 5795 5789 5786 5786 5787 5788 5786 5782 5778 5774 5769 5765 5762 5758 5754 5750 5747 5743 5740 5737 5732 5727 5721 5716 5710 5704 5698 5691 5683 5676 5668 5659 5650 5641 5632 5622 5611 5601 5589 5578 5566 5553 5540 5526 5511 5495
5800 5797 5793 5788 5784 5779 5774 5780 5782 5776 5771 5768 5764 5759 5755 5751 5747 5743 5739 5735 5732 5728 5724 5720 5714 5709 5703 5697 5692 5686 5679 5671 5663 5655 5647 5638 5628 5619 5609 5598 5588 5576 5565 5553 5541 5528 5514 5499 5483
5792 5789 5786 5782 5778 5773 5766 5769 5773 5767 5761 5756 5753 5749 5745 5741 5737 5733 5729 5725 5720 5716 5711 5706 5701 5696 5690 5685 5679 5673 5666 5658 5650 5642 5634 5625 5616 5606 5596 5586 5575 5564 5552 5540 5528 5515 5501 5487 5472